FW8733 Weather Reports


time (UTC)temp
C
wind
direction
speed
KPH
gust
KPH
rain 1hr
cm
rain 24hr
cm
rain mn
cm
humidity
%
barometer
mb
20260902014909 32 178 1.6 4.8 0.00 0.00 0.00 56 1016.5
20260902014406 32 227 0.0 1.6 0.00 0.00 0.00 56 1016.3
20260902013904 32 216 0.0 1.6 0.00 0.00 0.00 55 1016.2
20260902013400 32 211 1.6 1.6 0.00 0.00 0.00 54 1016.0
20260902012855 32 205 1.6 3.2 0.00 0.00 0.00 54 1016.0
20260902012351 32 197 3.2 3.2 0.00 0.00 0.00 54 1016.0
20260902011847 32 212 1.6 1.6 0.00 0.00 0.00 54 1016.0
20260902011341 32 203 1.6 1.6 0.00 0.00 0.00 53 1015.8
20260902010840 33 205 0.0 1.6 0.00 0.00 0.00 53 1015.7
20260902010330 33 198 0.0 0.0 0.00 0.00 0.00 52 1015.8
20260902005829 33 198 6.4 8.0 0.00 0.00 0.00 51 1015.6
20260902005323 33 201 1.6 3.2 0.00 0.00 0.00 51 1015.6
20260902004819 33 179 4.8 4.8 0.00 0.00 0.00 50 1015.7
20260902004314 33 195 3.2 3.2 0.00 0.00 0.00 50 1015.7
20260902003808 34 188 3.2 3.2 0.00 0.00 0.00 49 1015.9
20260902003304 34 134 6.4 8.0 0.00 0.00 0.00 49 1015.9
20260902002759 34 139 9.7 11.3 0.00 0.00 0.00 49 1016.0
20260902002259 35 201 4.8 4.8 0.00 0.00 0.00 49 1015.8
20260902001754 35 119 8.0 12.9 0.00 0.00 0.00 48 1016.1
20260902001250 35 185 9.7 11.3 0.00 0.00 0.00 48 1015.9
20260902000749 35 227 6.4 8.0 0.00 0.00 0.00 47 1015.9
20260902000244 35 170 6.4 11.3 0.00 0.00 0.00 45 1016.1
20260901235739 35 218 3.2 3.2 0.00 0.00 0.00 46 1015.7
20260901235234 35 224 1.6 1.6 0.00 0.00 0.00 46 1015.9
20260901234733 35 217 0.0 1.6 0.00 0.00 0.00 46 1016.1
20260901234233 35 226 0.0 1.6 0.00 0.00 0.00 47 1015.7
20260901233728 35 212 1.6 3.2 0.00 0.00 0.00 47 1015.9
20260901233224 36 186 1.6 3.2 0.00 0.00 0.00 46 1015.8
20260901232719 36 206 0.0 1.6 0.00 0.00 0.00 44 1015.7
20260901232214 36 233 0.0 0.0 0.00 0.00 0.00 45 1015.6
20260901231711 36 228 0.0 0.0 0.00 0.00 0.00 44 1015.8
20260901231207 37 203 3.2 8.0 0.00 0.00 0.00 44 1015.7
20260901230702 37 193 1.6 3.2 0.00 0.00 0.00 43 1015.9
20260901230202 37 211 3.2 3.2 0.00 0.00 0.00 42 1015.8
20260901225657 37 219 8.0 9.7 0.00 0.00 0.00 42 1016.0
20260901225151 37 262 0.0 1.6 0.00 0.00 0.00 42 1015.8
20260901224648 37 230 0.0 0.0 0.00 0.00 0.00 43 1015.5
20260901224143 37 165 4.8 8.0 0.00 0.00 0.00 42 1015.8
20260901223639 37 214 1.6 1.6 0.00 0.00 0.00 40 1015.8
20260901223134 37 230 0.0 0.0 0.00 0.00 0.00 41 1015.8
20260901222630 37 183 6.4 9.7 0.00 0.00 0.00 40 1015.9
20260901222126 38 229 0.0 0.0 0.00 0.00 0.00 40 1015.7
20260901221622 37 205 1.6 1.6 0.00 0.00 0.00 40 1015.9
20260901221117 37 181 4.8 4.8 0.00 0.00 0.00 41 1015.7
20260901220616 37 205 6.4 9.7 0.00 0.00 0.00 40 1016.0
20260901220115 37 171 3.2 4.8 0.00 0.00 0.00 41 1015.9
20260901215614 37 174 6.4 9.7 0.00 0.00 0.00 42 1015.9
20260901215108 37 249 1.6 3.2 0.00 0.00 0.00 43 1016.1
20260901214607 37 210 0.0 1.6 0.00 0.00 0.00 45 1016.0
20260901214107 36 217 0.0 1.6 0.00 0.00 0.00 46 1015.9
20260901213601 36 195 1.6 3.2 0.00 0.00 0.00 45 1016.1
20260901213055 37 199 4.8 4.8 0.00 0.00 0.00 43 1016.1
20260901212555 37 198 6.4 9.7 0.00 0.00 0.00 43 1016.2
20260901212052 36 231 3.2 3.2 0.00 0.00 0.00 43 1016.1
20260901211547 35 225 0.0 0.0 0.00 0.00 0.00 47 1016.3
20260901211043 35 244 0.0 0.0 0.00 0.00 0.00 48 1016.2
20260901210538 36 191 6.4 8.0 0.00 0.00 0.00 45 1016.5
20260901210035 37 223 0.0 0.0 0.00 0.00 0.00 43 1016.4
20260901205529 37 288 4.8 4.8 0.00 0.00 0.00 44 1016.7
20260901205024 36 236 0.0 1.6 0.00 0.00 0.00 44 1016.5
20260901204521 36 241 0.0 0.0 0.00 0.00 0.00 47 1016.8
20260901204021 36 170 6.4 8.0 0.00 0.00 0.00 44 1016.8
20260901203515 37 227 6.4 9.7 0.00 0.00 0.00 43 1016.8
20260901203010 37 245 1.6 1.6 0.00 0.00 0.00 45 1017.0
20260901202505 36 224 0.0 0.0 0.00 0.00 0.00 48 1017.1
20260901202001 36 195 6.4 9.7 0.00 0.00 0.00 46 1017.1
20260901201456 36 211 1.6 3.2 0.00 0.00 0.00 45 1017.3
20260901200950 37 206 1.6 1.6 0.00 0.00 0.00 43 1017.4
20260901200445 36 219 1.6 1.6 0.00 0.00 0.00 44 1017.5
20260901195944 36 183 11.3 12.9 0.00 0.00 0.00 43 1017.5
20260901195443 36 209 3.2 4.8 0.00 0.00 0.00 44 1017.5
20260901194937 37 141 8.0 11.3 0.00 0.00 0.00 44 1017.5
20260901194432 37 177 4.8 8.0 0.00 0.00 0.00 43 1017.6
20260901193929 36 156 4.8 8.0 0.00 0.00 0.00 45 1017.7
20260901193428 35 254 3.2 3.2 0.00 0.00 0.00 47 1017.8
20260901192927 36 218 0.0 1.6 0.00 0.00 0.00 46 1017.7
20260901192423 36 239 0.0 0.0 0.00 0.00 0.00 47 1017.9
20260901191914 36 164 9.7 9.7 0.00 0.00 0.00 44 1018.0
20260901191409 36 207 1.6 1.6 0.00 0.00 0.00 46 1018.1
20260901190905 36 211 3.2 3.2 0.00 0.00 0.00 45 1018.1
20260901190405 36 230 0.0 0.0 0.00 0.00 0.00 48 1018.1
20260901185903 36 244 0.0 1.6 0.00 0.00 0.00 47 1018.0
20260901185402 36 128 8.0 12.9 0.00 0.00 0.00 46 1018.3
20260901184857 36 180 4.8 4.8 0.00 0.00 0.00 47 1018.4
20260901184353 36 191 6.4 8.0 0.00 0.00 0.00 46 1018.5
20260901183848 36 113 8.0 9.7 0.00 0.00 0.00 47 1018.6
20260901183347 36 148 8.0 9.7 0.00 0.00 0.00 47 1018.8
20260901182843 36 240 4.8 8.0 0.00 0.00 0.00 47 1018.8
20260901182343 36 196 9.7 12.9 0.00 0.00 0.00 45 1019.0
20260901181838 35 63 3.2 3.2 0.00 0.00 0.00 48 1018.8
20260901181333 35 179 6.4 8.0 0.00 0.00 0.00 48 1019.1
20260901180832 36 224 4.8 8.0 0.00 0.00 0.00 48 1019.0
20260901180331 35 178 4.8 8.0 0.00 0.00 0.00 51 1019.1
20260901175825 35 163 3.2 4.8 0.00 0.00 0.00 50 1019.2
20260901175319 35 221 1.6 3.2 0.00 0.00 0.00 51 1019.2
20260901174814 35 173 4.8 4.8 0.00 0.00 0.00 51 1019.2
20260901174310 35 189 6.4 9.7 0.00 0.00 0.00 49 1019.4
20260901173806 35 184 3.2 4.8 0.00 0.00 0.00 54 1019.7
20260901173300 35 199 4.8 4.8 0.00 0.00 0.00 52 1019.6
20260901172757 35 194 6.4 8.0 0.00 0.00 0.00 52 1019.7
20260901172256 35 144 8.0 11.3 0.00 0.00 0.00 52 1019.6
20260901171754 35 152 6.4 8.0 0.00 0.00 0.00 52 1020.0
20260901171253 35 211 6.4 8.0 0.00 0.00 0.00 53 1019.8
20260901170752 35 230 0.0 0.0 0.00 0.00 0.00 60 1019.9
20260901170247 35 181 4.8 8.0 0.00 0.00 0.00 53 1020.0
20260901165746 36 180 3.2 4.8 0.00 0.00 0.00 53 1020.0
20260901165240 35 240 0.0 0.0 0.00 0.00 0.00 58 1020.1
20260901164737 35 229 0.0 1.6 0.00 0.00 0.00 57 1019.9
20260901164233 35 225 0.0 0.0 0.00 0.00 0.00 59 1019.9
20260901163728 35 221 0.0 0.0 0.00 0.00 0.00 61 1020.3
20260901163227 34 210 1.6 3.2 0.00 0.00 0.00 60 1020.0
20260901162722 33 226 0.0 1.6 0.00 0.00 0.00 62 1020.4
20260901162221 34 228 1.6 3.2 0.00 0.00 0.00 61 1020.2
20260901161720 33 222 0.0 0.0 0.00 0.00 0.00 67 1020.4
20260901161215 33 221 0.0 1.6 0.00 0.00 0.00 62 1020.3
20260901160712 33 222 0.0 0.0 0.00 0.00 0.00 65 1020.5
20260901160207 31 245 1.6 1.6 0.00 0.00 0.00 68 1020.3
20260901155705 32 204 0.0 1.6 0.00 0.00 0.00 65 1020.5
20260901155201 31 261 0.0 1.6 0.00 0.00 0.00 69 1020.3
20260901154656 32 239 0.0 1.6 0.00 0.00 0.00 70 1020.5
20260901154151 31 296 1.6 3.2 0.00 0.00 0.00 67 1020.6
20260901153646 31 233 0.0 0.0 0.00 0.00 0.00 70 1020.4
20260901153145 31 222 1.6 1.6 0.00 0.00 0.00 67 1020.3
20260901152640 32 210 1.6 3.2 0.00 0.00 0.00 67 1020.4
20260901152139 31 239 0.0 1.6 0.00 0.00 0.00 67 1020.3
20260901151635 31 221 0.0 0.0 0.00 0.00 0.00 73 1020.6
20260901151134 31 238 1.6 1.6 0.00 0.00 0.00 71 1020.6
20260901150633 31 238 0.0 1.6 0.00 0.00 0.00 73 1020.5
20260901150132 31 238 1.6 1.6 0.00 0.00 0.00 73 1020.5
20260901145630 30 212 0.0 1.6 0.00 0.00 0.00 75 1020.5
20260901145130 30 214 0.0 0.0 0.00 0.00 0.00 73 1020.6
20260901144625 30 238 1.6 3.2 0.00 0.00 0.00 75 1020.5
20260901144121 30 263 0.0 1.6 0.00 0.00 0.00 76 1020.5
20260901143616 30 215 0.0 1.6 0.00 0.00 0.00 76 1020.4
20260901143112 30 236 0.0 0.0 0.00 0.00 0.00 78 1020.5
20260901142608 29 213 0.0 1.6 0.00 0.00 0.00 80 1020.6
20260901142107 30 213 0.0 0.0 0.00 0.00 0.00 78 1020.6
20260901141602 30 214 0.0 0.0 0.00 0.00 0.00 79 1020.9
20260901141056 30 213 0.0 0.0 0.00 0.00 0.00 77 1020.7
20260901140550 29 237 1.6 1.6 0.00 0.00 0.00 78 1020.8
20260901140050 29 213 0.0 0.0 0.00 0.00 0.00 80 1020.7
20260901135549 28 237 0.0 0.0 0.00 0.00 0.00 81 1020.8
20260901135044 28 212 0.0 0.0 0.00 0.00 0.00 83 1020.6
20260901134540 28 242 0.0 0.0 0.00 0.00 0.00 82 1021.0
20260901134035 28 214 1.6 1.6 0.00 0.00 0.00 82 1020.6
20260901133534 27 236 0.0 0.0 0.00 0.00 0.00 85 1020.5
20260901133033 27 239 1.6 1.6 0.00 0.00 0.00 85 1020.4
20260901132532 27 241 0.0 0.0 0.00 0.00 0.00 87 1020.5
20260901132026 27 216 0.0 0.0 0.00 0.00 0.00 86 1020.3
20260901131521 26 227 0.0 0.0 0.00 0.00 0.00 90 1020.3
20260901131017 26 233 0.0 0.0 0.00 0.00 0.00 92 1020.2
20260901130516 25 224 0.0 0.0 0.00 0.00 0.00 95 1020.3
20260901130015 25 223 0.0 0.0 0.00 0.00 0.00 96 1020.0
20260901125514 24 233 0.0 0.0 0.00 0.00 0.00 97 1020.1
20260901125009 24 233 0.0 0.0 0.00 0.00 0.00 97 1020.0
20260901124505 23 233 0.0 0.0 0.00 0.00 0.00 97 1020.2
20260901123958 23 233 0.0 0.0 0.00 0.00 0.00 97 1019.8
20260901123453 23 233 0.0 0.0 0.00 0.00 0.00 97 1019.9
20260901122951 23 233 0.0 0.0 0.00 0.00 0.00 96 1019.8
20260901122450 23 233 0.0 0.0 0.00 0.00 0.00 96 1019.7
20260901121945 23 234 0.0 0.0 0.00 0.00 0.00 96 1019.9
20260901121440 23 233 0.0 0.0 0.00 0.00 0.00 96 1019.7
20260901120935 23 233 0.0 0.0 0.00 0.00 0.00 96 1019.7
20260901120435 23 233 0.0 0.0 0.00 0.00 0.00 96 1019.7
20260901115931 23 235 0.0 0.0 0.00 0.00 0.00 96 1019.6
20260901115431 23 235 0.0 0.0 0.00 0.00 0.00 96 1019.6
20260901114929 23 228 0.0 0.0 0.00 0.00 0.00 95 1019.6
20260901114424 23 228 0.0 0.0 0.00 0.00 0.00 95 1019.8
20260901113922 23 228 0.0 0.0 0.00 0.00 0.00 95 1019.9
20260901113421 23 233 0.0 0.0 0.00 0.00 0.00 94 1019.6
20260901112916 23 235 0.0 0.0 0.00 0.00 0.00 94 1019.8
20260901112411 23 235 0.0 0.0 0.00 0.00 0.00 94 1019.8
20260901111906 23 235 0.0 0.0 0.00 0.00 0.00 94 1019.6
20260901111404 23 232 0.0 0.0 0.00 0.00 0.00 94 1019.5
20260901110903 23 232 0.0 0.0 0.00 0.00 0.00 93 1019.6
20260901110359 24 232 0.0 0.0 0.00 0.00 0.00 93 1019.5
20260901105855 24 233 0.0 0.0 0.00 0.00 0.00 93 1019.5
20260901105350 24 233 0.0 0.0 0.00 0.00 0.00 93 1019.6
20260901104846 24 236 0.0 0.0 0.00 0.00 0.00 93 1019.6
20260901104341 24 230 0.0 0.0 0.00 0.00 0.00 92 1019.7
20260901103837 24 224 0.0 0.0 0.00 0.00 0.00 91 1019.7
20260901103336 25 232 0.0 0.0 0.00 0.00 0.00 91 1019.7
20260901102831 25 217 0.0 0.0 0.00 0.00 0.00 91 1019.6
20260901102326 25 216 0.0 0.0 0.00 0.00 0.00 91 1019.3
20260901101822 25 216 0.0 0.0 0.00 0.00 0.00 91 1019.4
20260901101321 25 216 0.0 0.0 0.00 0.00 0.00 90 1019.3
20260901100821 25 216 0.0 0.0 0.00 0.00 0.00 90 1019.5
20260901100316 25 216 0.0 0.0 0.00 0.00 0.00 90 1019.4
20260901095814 25 215 0.0 1.6 0.00 0.00 0.00 90 1019.7
20260901095312 25 216 0.0 0.0 0.00 0.00 0.00 89 1019.5
20260901094807 25 216 0.0 0.0 0.00 0.00 0.00 89 1019.6
20260901094301 25 216 0.0 0.0 0.00 0.00 0.00 89 1019.6
20260901093756 25 216 0.0 0.0 0.00 0.00 0.00 89 1019.7
20260901093255 25 216 0.0 0.0 0.00 0.00 0.00 88 1019.7
20260901092751 25 216 0.0 0.0 0.00 0.00 0.00 88 1019.4
20260901092247 25 216 0.0 0.0 0.00 0.00 0.00 88 1019.6
20260901091742 25 216 0.0 0.0 0.00 0.00 0.00 87 1019.8
20260901091238 25 216 0.0 0.0 0.00 0.00 0.00 87 1019.7
20260901090732 25 216 0.0 0.0 0.00 0.00 0.00 87 1019.6
20260901090227 25 216 0.0 0.0 0.00 0.00 0.00 86 1019.8
20260901085723 26 217 0.0 0.0 0.00 0.00 0.00 86 1019.5
20260901085218 26 215 0.0 0.0 0.00 0.00 0.00 85 1019.5
20260901084715 26 166 3.2 3.2 0.00 0.00 0.00 85 1019.4
20260901084211 26 218 0.0 0.0 0.00 0.00 0.00 85 1019.5
20260901083705 26 206 0.0 1.6 0.00 0.00 0.00 85 1019.5
20260901083204 26 215 0.0 1.6 0.00 0.00 0.00 84 1019.5
20260901082658 26 214 1.6 1.6 0.00 0.00 0.00 84 1019.6
20260901082154 26 217 0.0 1.6 0.00 0.00 0.00 83 1019.4
20260901081649 26 218 1.6 1.6 0.00 0.00 0.00 83 1019.6
20260901081148 26 228 1.6 3.2 0.00 0.00 0.00 83 1019.4
20260901080643 26 199 1.6 3.2 0.00 0.00 0.00 83 1019.2
20260901080142 26 218 1.6 1.6 0.00 0.00 0.00 83 1019.2
20260901075638 26 218 0.0 1.6 0.00 0.00 0.00 82 1019.4
20260901075137 26 218 0.0 1.6 0.00 0.00 0.00 82 1019.5
20260901074636 26 218 0.0 1.6 0.00 0.00 0.00 81 1019.4
20260901074132 26 218 0.0 0.0 0.00 0.00 0.00 81 1019.5
20260901073628 26 218 0.0 1.6 0.00 0.00 0.00 81 1019.5
20260901073123 26 219 0.0 0.0 0.00 0.00 0.00 80 1019.6
20260901072619 26 217 1.6 1.6 0.00 0.00 0.00 80 1019.6
20260901072114 26 218 0.0 1.6 0.00 0.00 0.00 79 1019.7
20260901071614 26 217 1.6 1.6 0.00 0.00 0.00 79 1019.8
20260901071113 27 218 0.0 0.0 0.00 0.00 0.00 78 1019.6
20260901070607 27 218 0.0 0.0 0.00 0.00 0.00 78 1019.5
20260901070103 27 218 1.6 1.6 0.00 0.00 0.00 77 1019.5
20260901065556 27 218 0.0 0.0 0.00 0.00 0.00 77 1019.4
20260901065051 27 207 3.2 4.8 0.00 0.00 0.00 76 1019.5
20260901064548 27 180 1.6 3.2 0.00 0.00 0.00 75 1019.3
20260901064044 27 218 4.8 4.8 0.00 0.00 0.00 75 1019.5
20260901063541 27 197 3.2 4.8 0.00 0.00 0.00 75 1019.6
20260901063037 28 212 4.8 4.8 0.00 0.00 0.00 75 1019.2
20260901062532 28 144 4.8 4.8 0.00 0.00 0.00 75 1019.2
20260901062028 28 207 1.6 3.2 0.00 0.00 0.00 74 1019.1
20260901061524 28 228 1.6 1.6 0.00 0.00 0.00 74 1019.3
20260901061019 28 157 4.8 4.8 0.00 0.00 0.00 73 1018.8
20260901060513 28 208 6.4 8.0 0.00 0.00 0.00 73 1018.9
20260901060008 28 228 4.8 4.8 0.00 0.00 0.00 73 1019.0
20260901055504 28 136 8.0 11.3 0.00 0.00 0.00 72 1019.0
20260901055000 28 186 4.8 8.0 0.00 0.00 0.00 72 1018.9
20260901054457 28 175 6.4 8.0 0.00 0.00 0.00 72 1019.0
20260901053953 28 204 4.8 4.8 0.00 0.00 0.00 72 1018.7
20260901053448 28 183 8.0 9.7 0.00 0.00 0.00 72 1019.0
20260901052943 28 201 3.2 3.2 0.00 0.00 0.00 71 1018.9
20260901052439 29 178 4.8 4.8 0.00 0.00 0.00 71 1018.9
20260901051932 29 184 4.8 8.0 0.00 0.00 0.00 71 1018.8
20260901051427 29 210 3.2 3.2 0.00 0.00 0.00 70 1018.8
20260901050922 29 155 6.4 9.7 0.00 0.00 0.00 70 1018.8
20260901050418 29 205 6.4 9.7 0.00 0.00 0.00 70 1018.8
20260901045917 29 225 4.8 8.0 0.00 0.00 0.00 70 1018.5
20260901045412 29 146 6.4 9.7 0.00 0.00 0.00 69 1018.7
20260901044907 29 197 4.8 4.8 0.00 0.00 0.00 69 1018.6
20260901044403 30 179 4.8 4.8 0.00 0.00 0.00 69 1018.5
20260901043859 30 211 3.2 3.2 0.00 0.00 0.00 68 1018.6
20260901043354 30 148 9.7 11.3 0.00 0.00 0.00 67 1018.6
20260901042849 30 166 4.8 4.8 0.00 0.00 0.00 67 1018.6
20260901042343 30 171 8.0 9.7 0.00 0.00 0.00 66 1018.6
20260901041838 30 195 6.4 9.7 0.00 0.00 0.00 66 1018.7
20260901041333 30 229 3.2 3.2 0.00 0.00 0.00 66 1018.7
20260901040828 30 224 8.0 11.3 0.00 0.00 0.00 65 1018.5
20260901040327 30 191 6.4 8.0 0.00 0.00 0.00 65 1018.6
20260901035826 30 197 4.8 4.8 0.00 0.00 0.00 64 1018.8
20260901035326 30 205 4.8 4.8 0.00 0.00 0.00 64 1018.6
20260901034824 30 168 8.0 9.7 0.00 0.00 0.00 63 1018.7
20260901034320 30 120 6.4 8.0 0.00 0.00 0.00 62 1018.7
20260901033820 30 131 8.0 9.7 0.00 0.00 0.00 61 1018.5
20260901033319 30 151 3.2 8.0 0.00 0.00 0.00 59 1018.6
20260901032818 30 201 3.2 4.8 0.00 0.00 0.00 57 1018.5
20260901032317 30 218 3.2 3.2 0.00 0.00 0.00 55 1018.5
20260901031812 30 187 4.8 4.8 0.00 0.00 0.00 54 1018.2
20260901031308 30 205 4.8 4.8 0.00 0.00 0.00 54 1018.3
20260901030808 30 221 4.8 4.8 0.00 0.00 0.00 54 1018.3
20260901030303 30 183 4.8 4.8 0.00 0.00 0.00 56 1018.1
20260901025802 29 197 1.6 3.2 0.00 0.00 0.00 57 1018.0
20260901025257 29 217 0.0 0.0 0.00 0.00 0.00 56 1018.0
20260901024752 30 217 0.0 0.0 0.00 0.00 0.00 55 1017.9
20260901024251 30 217 0.0 0.0 0.00 0.00 0.00 55 1017.5
20260901023749 30 217 0.0 0.0 0.00 0.00 0.00 54 1017.6
20260901023244 30 207 0.0 0.0 0.00 0.00 0.00 54 1017.6
20260901022740 29 201 0.0 0.0 0.00 0.00 0.00 55 1017.4
20260901022235 29 221 0.0 0.0 0.00 0.00 0.00 56 1017.3
20260901021730 30 222 0.0 0.0 0.00 0.00 0.00 57 1017.4
20260901021226 30 224 0.0 0.0 0.00 0.00 0.00 56 1017.4
20260901020721 30 224 0.0 0.0 0.00 0.00 0.00 56 1017.1
20260901020216 30 222 0.0 0.0 0.00 0.00 0.00 55 1017.1
20260901015711 30 221 0.0 0.0 0.00 0.00 0.00 54 1017.1
20260901015207 31 224 0.0 0.0 0.00 0.00 0.00 52 1016.8